[[{"header":{"parameterUnit":"m.s-1","parameterCategory":1,"la1":30.2991,"la2":30.254,"lo1":-89.0895,"lo2":-89.0444,"dy":0.0017,"dx":0.0017,"nx":28,"ny":28,"refTime":"2024-08-17T09:00:00:Z","depth":0,"parameterNumber":2,"parameterNumberName":"U-component_of_WINDS"},"data":[0,0,0,0,0,0,0,0,0,0,0,0,0,0,0,0,0,0,0,0,0,0,0,0,0,0,0,0,0,0,0,0,0,0,0,0,0,0,0,0,0,0,0,0,0,0,0,0,0,0,0,0,0,0,0,0,0,0,0.4491,0.4491,0,0.4481,0.4481,0.4481,0.4474,0.4474,0.4474,0.4474,0.4463,0.4463,0.4462,0,0,0,0,0,0,0,0,0,0,0,0,0,0.4502,0.4502,0.4491,0.4491,0.4491,0.4481,0.4481,0.4481,0.4474,0.4474,0.4474,0.4474,0.4463,0.4463,0.4462,0,0,0,0,0,0,0,0,0,0,0,0,0,0.4495,0.4502,0.4491,0.4486,0.4486,0.4481,0.4481,0.4481,0.4474,0.4474,0.4474,0.4474,0.4463,0.4463,0.4462,0.4462,0,0,0.4461,0.4461,0,0,0,0,0,0,0,0,0.4496,0.4495,0.4487,0.4487,0.4486,0.4479,0.4481,0.4475,0.4474,0.4479,0.4474,0.4474,0.4468,0.4467,0.4466,0.4461,0.4461,0.4461,0.4461,0.4461,0.4461,0,0,0,0,0,0,0,0.4496,0.4495,0.4487,0.4487,0.4486,0.4484,0.4483,0.448,0.4474,0.4478,0.4478,0.4477,0.4468,0.4466,0.4465,0.4461,0.4461,0.4461,0.4461,0.4461,0.4453,0.4453,0,0,0,0,0,0,0.4498,0.4496,0.4488,0.4487,0.4491,0.4484,0.4483,0.4481,0.4474,0.4473,0.4477,0.4476,0.4467,0.4466,0.4465,0.4463,0.4461,0.4461,0.446,0.4453,0.4453,0.4453,0,0,0,0,0,0,0.4498,0.4497,0.4488,0.4491,0.449,0.4484,0.4482,0.4481,0.4479,0.4473,0.4472,0.4476,0.4467,0.4466,0.4462,0.4462,0.446,0.446,0.4453,0.4453,0.4453,0.4459,0,0,0,0,0,0,0.4498,0.4497,0.4498,0.4491,0.449,0.4486,0.4482,0.4481,0.4479,0.4478,0.4472,0.4471,0.4467,0.4463,0.4462,0.4462,0.446,0.4453,0.4453,0.4453,0.4458,0.4459,0.4459,0,0,0,0,0,0.4499,0.45,0.4498,0.4497,0.449,0.4486,0.4485,0.4481,0.4479,0.4479,0.4474,0.4471,0.4462,0.4463,0.4461,0.4461,0.4453,0.4453,0.4453,0.4458,0.4459,0.4459,0,0,0,0,0,0,0.4506,0.4499,0.4496,0.4496,0.4492,0.4485,0.4485,0.4482,0.4478,0.4477,0.4471,0.447,0.4467,0.4464,0.4464,0.4459,0.4457,0.4457,0.4461,0.4462,0.4462,0.4463,0.4459,0,0,0,0,0,0.4508,0.4506,0.4499,0.4499,0.4497,0.4491,0.4489,0.4486,0.4481,0.448,0.4475,0.447,0.4466,0.4464,0.446,0.4458,0.4455,0.4457,0.4457,0.4457,0.4457,0.4454,0.4454,0.4453,0.4453,0.4453,0,0,0.4511,0.4507,0.4506,0.45,0.4497,0.4494,0.449,0.4488,0.4485,0.4479,0.4476,0.4472,0.4466,0.4463,0.4461,0.446,0.4457,0.4458,0.4458,0.4457,0.4454,0.4454,0.4454,0.4453,0.4453,0.4453,0,0,0.4515,0.4513,0.4511,0.4508,0.4502,0.4498,0.4497,0.4491,0.4488,0.4484,0.448,0.4476,0.447,0.4465,0.4462,0.4463,0.4459,0.4462,0.4464,0.4461,0.4461,0.4461,0.446,0.446,0.4462,0.4462,0.4462,0,0.452,0.4516,0.4511,0.4508,0.4505,0.45,0.4498,0.4494,0.4488,0.4485,0.4484,0.4475,0.4471,0.4466,0.4465,0.4464,0.4462,0.4463,0.4461,0.4461,0.4461,0.446,0.446,0.4462,0.4462,0.4462,0.4462,0,0.4521,0.4519,0.4518,0.4511,0.4508,0.4506,0.45,0.4497,0.4494,0.4489,0.4484,0.4479,0.4473,0.4472,0.4468,0.4465,0.4465,0.4462,0.446,0.4462,0.446,0.446,0.4462,0.4462,0.4462,0.4462,0,0,0.4531,0.4521,0.4521,0.4517,0.4509,0.4507,0.4503,0.4497,0.4495,0.449,0.4486,0.448,0.4477,0.4474,0.447,0.4467,0.4466,0.4465,0.4465,0.4465,0.4461,0.4462,0.4462,0.4464,0.4464,0.4464,0.4461,0,0.4534,0.4528,0.4522,0.4518,0.4514,0.4508,0.4505,0.45,0.4495,0.4491,0.4485,0.4481,0.4478,0.4476,0.4473,0.4467,0.4465,0.4467,0.4459,0.4459,0.4461,0.4462,0.4464,0.4462,0.4461,0.4461,0.4461,0,0.4536,0.4531,0.4526,0.4518,0.4516,0.4514,0.4507,0.4503,0.4496,0.4493,0.4488,0.4483,0.4478,0.4477,0.4469,0.447,0.4467,0.4463,0.4463,0.4462,0.446,0.446,0.4461,0.446,0.446,0.446,0.446,0,0.4542,0.4534,0.453,0.4527,0.4517,0.4515,0.4511,0.4504,0.45,0.4494,0.4491,0.4485,0.4481,0.4476,0.4469,0.4469,0.4461,0.446,0.4458,0.4458,0.4456,0.4456,0.4456,0.4455,0.4455,0.4455,0.4455,0,0.4545,0.4542,0.4532,0.453,0.4526,0.4519,0.4515,0.451,0.4504,0.4499,0.4493,0.4489,0.4481,0.4475,0.447,0.4463,0.4462,0.4458,0.4457,0.4459,0.4459,0.4456,0.4456,0.4455,0.4455,0.4455,0.4455,0,0.4551,0.4545,0.454,0.453,0.4528,0.4525,0.4517,0.4513,0.4508,0.4502,0.45,0.4492,0.4485,0.4477,0.4468,0.4464,0.4458,0.4456,0.446,0.4459,0.4457,0.4457,0.4455,0.4453,0.4454,0.4454,0.4454,0,0.4554,0.4551,0.4541,0.4538,0.4534,0.4528,0.4524,0.4517,0.4512,0.4503,0.4501,0.4493,0.4487,0.4476,0.4468,0.446,0.4458,0.4458,0.4457,0.4458,0.4457,0.4457,0.4456,0.4458,0.4458,0.4458,0.4458,0,0.4558,0.4554,0.4549,0.4541,0.4536,0.453,0.4524,0.4522,0.4513,0.4508,0.4501,0.4496,0.4485,0.4477,0.4469,0.4463,0.4459,0.4458,0.4457,0.4459,0.4461,0.4458,0.446,0.4458,0.4458,0.4458,0.4458,0.4458,0.4561,0.4558,0.455,0.4544,0.4538,0.4532,0.4528,0.4521,0.4515,0.4506,0.4502,0.4494,0.4486,0.4473,0.4468,0.4461,0.446,0.4459,0.4458,0.4458,0.4458,0.4462,0.446,0.446,0.446,0.446,0.446,0,0.4564,0.4558,0.4552,0.4543,0.4538,0.4534,0.4526,0.4522,0.4515,0.4508,0.4501,0.4492,0.4484,0.4475,0.4466,0.4462,0.446,0.446,0.446,0.4459,0.446,0.4461,0.4462,0.4462,0.4462,0.4462,0.4462,0.4462,0.4565,0.4559,0.4554,0.4544,0.4539,0.4531,0.4527,0.4521,0.4514,0.4504,0.4498,0.4492,0.4484,0.4474,0.4466,0.4463,0.446,0.4461,0.4458,0.4459,0.4459,0.4459,0.446,0.446,0.446,0.4457,0.4457,0.4457]},{"header":{"parameterUnit":"m.s-1","parameterCategory":1,"la1":30.2991,"la2":30.254,"lo1":-89.0895,"lo2":-89.0444,"dy":0.0017,"dx":0.0017,"nx":28,"ny":28,"refTime":"2024-08-17T09:00:00:Z","depth":0,"parameterNumber":3,"parameterNumberName":"V-component_of_WINDS"},"data":[0,0,0,0,0,0,0,0,0,0,0,0,0,0,0,0,0,0,0,0,0,0,0,0,0,0,0,0,0,0,0,0,0,0,0,0,0,0,0,0,0,0,0,0,0,0,0,0,0,0,0,0,0,0,0,0,0,0,3.8022,3.8023,0,3.8099,3.81,3.81,3.8074,3.8073,3.8071,3.8069,3.8143,3.8147,3.815,0,0,0,0,0,0,0,0,0,0,0,0,0,3.7848,3.7851,3.8022,3.8023,3.8024,3.8099,3.81,3.8101,3.8075,3.8073,3.8071,3.8069,3.8142,3.8146,3.815,0,0,0,0,0,0,0,0,0,0,0,0,0,3.7924,3.7852,3.8022,3.802,3.8021,3.8098,3.81,3.8101,3.8075,3.8073,3.807,3.8068,3.8141,3.8146,3.8151,3.8234,0,0,3.8167,3.8169,0,0,0,0,0,0,0,0,3.792,3.793,3.802,3.8021,3.8021,3.8075,3.8065,3.8145,3.8076,3.8054,3.8069,3.8066,3.8122,3.8129,3.8148,3.8237,3.824,3.8168,3.8171,3.8173,3.8175,0,0,0,0,0,0,0,3.7914,3.7927,3.8052,3.8021,3.8022,3.8014,3.8022,3.808,3.8101,3.8056,3.8054,3.8064,3.8122,3.8143,3.815,3.8241,3.8167,3.8172,3.8175,3.8177,3.8397,3.84,0,0,0,0,0,0,3.7909,3.7923,3.805,3.8055,3.7963,3.8019,3.8028,3.806,3.81,3.8104,3.8066,3.8062,3.8136,3.8144,3.8152,3.8249,3.8173,3.8178,3.8181,3.8395,3.8398,3.8401,0,0,0,0,0,0,3.7906,3.7921,3.8047,3.7988,3.8004,3.8025,3.8061,3.8063,3.8084,3.8108,3.8111,3.8084,3.8134,3.8145,3.8213,3.8251,3.818,3.8185,3.8392,3.8396,3.8399,3.8445,0,0,0,0,0,0,3.7901,3.792,3.7953,3.7989,3.8007,3.8108,3.8063,3.8066,3.8094,3.809,3.8126,3.813,3.8133,3.8205,3.8218,3.8257,3.8189,3.8388,3.8393,3.8398,3.844,3.845,3.8459,0,0,0,0,0,3.7895,3.7963,3.7955,3.797,3.8049,3.8111,3.8121,3.8124,3.8097,3.8129,3.8144,3.8128,3.8246,3.8213,3.8227,3.8268,3.8386,3.8392,3.8398,3.8436,3.8448,3.8458,0,0,0,0,0,0,3.793,3.7967,3.7959,3.8041,3.8073,3.8106,3.8147,3.8137,3.8176,3.8171,3.8172,3.818,3.825,3.8266,3.8229,3.8348,3.8311,3.832,3.8335,3.8347,3.8356,3.835,3.8194,0,0,0,0,0,3.7947,3.7996,3.8025,3.8095,3.8111,3.8127,3.8153,3.8153,3.8186,3.8198,3.8219,3.8249,3.8292,3.8321,3.8362,3.8443,3.8448,3.8478,3.8487,3.8494,3.8502,3.8542,3.8555,3.8421,3.8421,3.8421,0,0,3.7983,3.801,3.804,3.8102,3.8127,3.8175,3.8138,3.8191,3.8225,3.8206,3.8271,3.8287,3.8321,3.8394,3.8428,3.841,3.854,3.8502,3.8508,3.8511,3.855,3.8562,3.8574,3.8425,3.8424,3.8423,0,0,3.8073,3.81,3.8159,3.8184,3.8222,3.8231,3.8245,3.828,3.8289,3.8355,3.834,3.8381,3.8456,3.848,3.8502,3.8598,3.8584,3.8612,3.8659,3.8699,3.8709,3.8719,3.875,3.8762,3.8619,3.862,3.862,0,3.8113,3.8186,3.819,3.8244,3.827,3.8255,3.8314,3.8337,3.8386,3.8404,3.8383,3.8476,3.8498,3.8575,3.8599,3.8618,3.8632,3.8607,3.8708,3.8717,3.8726,3.8756,3.8768,3.8622,3.8622,3.8622,3.8622,0,3.8232,3.8282,3.8325,3.8373,3.8405,3.846,3.847,3.8501,3.8498,3.8509,3.8574,3.8599,3.8644,3.8663,3.8661,3.874,3.8727,3.8708,3.867,3.8742,3.877,3.8782,3.8627,3.8626,3.8625,3.8624,0,0,3.8346,3.8394,3.841,3.843,3.847,3.8508,3.8562,3.8606,3.8631,3.8665,3.8708,3.8771,3.8753,3.8778,3.8777,3.8812,3.8883,3.8788,3.8789,3.8803,3.8968,3.8981,3.8995,3.8875,3.8877,3.8879,3.8965,0,3.8437,3.8533,3.8537,3.8624,3.8668,3.8654,3.87,3.8728,3.8739,3.8777,3.8789,3.8832,3.8806,3.8821,3.8855,3.8867,3.8916,3.8862,3.8912,3.8914,3.8902,3.901,3.9025,3.9105,3.8976,3.8978,3.8979,0,3.8557,3.8594,3.8685,3.8716,3.8735,3.8777,3.8816,3.8854,3.8884,3.8889,3.8916,3.891,3.8962,3.8924,3.8994,3.8957,3.8977,3.8986,3.899,3.8993,3.895,3.9014,3.9131,3.9142,3.8997,3.8996,3.8995,0,3.8628,3.8701,3.8764,3.8783,3.8821,3.885,3.8866,3.8894,3.892,3.8954,3.897,3.901,3.9031,3.9061,3.9064,3.9037,3.9134,3.9097,3.9137,3.9137,3.9157,3.9156,3.9277,3.9174,3.9174,3.9174,3.9174,0,3.8729,3.8784,3.8797,3.8835,3.8896,3.8899,3.8958,3.8972,3.8997,3.9036,3.9026,3.9063,3.9066,3.9103,3.9106,3.9162,3.9172,3.9176,3.9176,3.9176,3.9175,3.9188,3.9182,3.9177,3.9176,3.9176,3.9175,0,3.8818,3.8829,3.8896,3.8926,3.8935,3.8978,3.9003,3.9038,3.9048,3.9097,3.9109,3.9123,3.9166,3.9173,3.9223,3.9225,3.9291,3.9286,3.9281,3.928,3.9319,3.9314,3.9451,3.9468,3.9356,3.9358,3.9358,0,3.8881,3.8923,3.8957,3.8983,3.9001,3.9044,3.907,3.9073,3.91,3.9136,3.9167,3.9209,3.9242,3.9311,3.9324,3.9362,3.9356,3.9402,3.9362,3.936,3.9354,3.9351,3.9354,3.9409,3.941,3.9411,3.9412,0,3.899,3.8992,3.9031,3.9071,3.9102,3.9134,3.9163,3.9185,3.9192,3.9222,3.9266,3.9292,3.9343,3.9384,3.9421,3.9435,3.9424,3.9424,3.9435,3.9435,3.9429,3.943,3.9299,3.9421,3.942,3.9419,3.9419,3.9419,3.9066,3.9102,3.9131,3.9173,3.9196,3.9223,3.9257,3.927,3.9308,3.935,3.9349,3.9397,3.9422,3.9471,3.9488,3.9524,3.9509,3.9526,3.9529,3.9533,3.9535,3.9425,3.9531,3.9531,3.953,3.953,3.953,0,3.9172,3.919,3.9229,3.927,3.9303,3.9291,3.9322,3.9349,3.9392,3.9418,3.9451,3.9499,3.9538,3.9554,3.9592,3.9617,3.9612,3.9626,3.9624,3.9627,3.9548,3.9534,3.9629,3.9629,3.9629,3.9629,3.9629,3.9629,3.9231,3.929,3.9296,3.9364,3.9381,3.9428,3.9447,3.9471,3.9491,3.9546,3.9579,3.959,3.9611,3.9649,3.9683,3.9687,3.97,3.9716,3.9717,3.9643,3.9633,3.9623,3.9609,3.9719,3.9719,3.9792,3.9793,3.9793]}]]